Location: Antioch Baptist Church
(32.6696°N, 85.7327°W)
Time: 12:11:59
(UTC+00:00)

Cosmos 2016 Rocket - Pass Details

Date: 14 July 2020
Orbit: 948 x 999 km, 83.0° (Epoch: 08 August)

Event Time Altitude Azimuth Distance (km) Brightness Sun altitude
Exits shadow 07:07:35 60° 65° (ENE) 1,088 4.3 -32.6°
Drops below altitude 10° 07:13:07 10° 13° (NNE) 2,710 7.2 -32.1°
Sets 07:15:40 0° 10° (N) 3,668 8.1 -31.9°
